This is the latest recevied weather packets stored in our database for station/object KD4UFD. If no packets are shown the sender has not sent any weather packets the latest 10 day(s).
| Time | Temp. | Humidity | Pressure | Rain* | Wind** | Luminosity | Snow |
|---|---|---|---|---|---|---|---|
| 1777560113 | 15.56° C | 69% | 1014.3 hPa | 0 mm | - | 723 W/m² | - |
| 1777559809 | 15.56° C | 67% | 1014.2 hPa | 0 mm | - | 662 W/m² | - |
| 1777559505 | 15° C | 68% | 1014.4 hPa | 0 mm | - | 704 W/m² | - |
| 1777559203 | 15° C | 70% | 1014.4 hPa | 0 mm | - | 647 W/m² | - |
| 1777558897 | 15° C | 70% | 1014.6 hPa | 0 mm | - | 632 W/m² | - |
| 1777558593 | 15.56° C | 70% | 1014.4 hPa | 0 mm | - | 609 W/m² | - |
| 1777558288 | 15° C | 69% | 1014.6 hPa | 0 mm | - | 636 W/m² | - |
| 1777557985 | 15.56° C | 69% | 1014.6 hPa | 0 mm | - | 596 W/m² | - |
| 1777557682 | 15° C | 70% | 1014.4 hPa | 0 mm | - | 581 W/m² | - |
| 1777557379 | 14.44° C | 70% | 1014.5 hPa | 0 mm | - | 560 W/m² | - |
| 1777557075 | 14.44° C | 72% | 1014.7 hPa | 0 mm | - | 519 W/m² | - |
| 1777556770 | 15° C | 71% | 1014.4 hPa | 0 mm | - | 467 W/m² | - |
| 1777556468 | 15° C | 73% | 1014.2 hPa | 0 mm | - | 432 W/m² | - |
| 1777556167 | 13.89° C | 74% | 1014.1 hPa | 0 mm | - | 403 W/m² | - |
| 1777555863 | 13.89° C | 74% | 1014.2 hPa | 0 mm | - | 373 W/m² | - |
| 1777555558 | 13.89° C | 74% | 1014.2 hPa | 0 mm | - | 348 W/m² | - |
| 1777555255 | 13.89° C | 73% | 1014.4 hPa | 0 mm | - | 331 W/m² | - |
| 1777554952 | 14.44° C | 74% | 1014.1 hPa | 0 mm | - | 322 W/m² | - |
| 1777554649 | 13.89° C | 74% | 1014.1 hPa | 0 mm | - | 289 W/m² | - |
| 1777554345 | 13.89° C | 75% | 1014.1 hPa | 0 mm | - | 284 W/m² | - |
| 1777554043 | 14.44° C | 75% | 1014.2 hPa | 0 mm | - | 255 W/m² | - |
| 1777553739 | 13.89° C | 75% | 1014.2 hPa | 0 mm | - | 226 W/m² | - |
| 1777553436 | 13.33° C | 76% | 1014.1 hPa | 0 mm | - | 220 W/m² | - |
| 1777553132 | 13.89° C | 75% | 1014.1 hPa | 0 mm | - | 224 W/m² | - |
| 1777552832 | 13.33° C | 76% | 1014.1 hPa | 0 mm | - | 206 W/m² | - |
* Rain latest hour (hover to see other rain measurements)
** Current wind speed in m/s (hover to see current wind gust speed)